Printer-friendly version

IAU Minor Planet Center

Minor Planet Center

MPEC 1995-G02: 1995 FJ

The following Minor Planet Electronic Circular may be linked-to from your own Web pages, but must not otherwise be redistributed electronically.


Read MPEC 1995-G01 Read MPEC 1995-G03


M.P.E.C. 1995-G02                                Issued 1995 Apr. 5, 13:19 UT

     The Minor Planet Electronic Circulars contain information on unusual
         minor planets and routine data on comets.  They are published
   on behalf of Commission 20 of the International Astronomical Union by the
          Minor Planet Center, Smithsonian Astrophysical Observatory,
                          Cambridge, MA 02138, U.S.A.

             BMARSDEN@CFA.HARVARD.EDU or GWILLIAMS@CFA.HARVARD.EDU

                                    1995 FJ

                           Revision to MPEC 1995-F09

Observations:
     J95F00J  C1995 04 02.34134 12 53 32.38 -33 34 47.9          18.8 V      809
     J95F00J  C1995 04 02.34288 12 53 31.60 -33 34 56.2                      809
     J95F00J  C1995 04 02.34434 12 53 30.98 -33 35 03.9                      809
     J95F00J  C1995 04 03.02034 12 48 23.67 -34 35 52.7          18.7 V      809
     J95F00J  C1995 04 03.02270 12 48 22.54 -34 36 05.7                      809
     J95F00J  C1995 04 03.02816 12 48 19.92 -34 36 35.7                      809
     J95F00J  C1995 04 03.03374 12 48 17.24 -34 37 06.7                      809
     J95F00J  C1995 04 03.10988 12 47 40.26 -34 44 04.0                      809
     J95F00J  C1995 04 03.11267 12 47 38.90 -34 44 19.2                      809
     J95F00J  C1995 04 03.11545 12 47 37.54 -34 44 34.5                      809
     J95F00J  C1995 04 03.33601 12 45 48.64 -35 04 17.6                      809
     J95F00J  C1995 04 03.34171 12 45 45.83 -35 04 47.7                      809
     J95F00J  C1995 04 03.34449 12 45 44.46 -35 05 02.5                      809
     J95F00J  C1995 04 03.37832 12 45 27.85 -35 08 00.4                      809

Observer details:
809 European Southern Observatory, La Silla.  Observers S. Mottola,
    E. Koldeway.  Measurer S. Mottola.  0.61-m Bochum telescope + CCD.

Orbital elements:
1995 FJ
Epoch 1995 Mar. 24.0 TT = JDT 2449800.5                 Williams
M 254.53609              (2000.0)            P               Q
n   0.87127940     Peri.  316.32436     +0.77291541     +0.63352447
a   1.0856698      Node     4.78442     -0.40020824     +0.52996308
e   0.2709797      Incl.   25.06445     -0.49237702     +0.56372500
P   1.13           H    20.5          G   0.15
From 28 observations 1995 Mar. 29-Apr. 3.

Ephemeris:
1995 FJ                  a,e,i = 1.09, 0.27, 25                  q = 0.7915
Date    TT    R. A. (2000) Decl.     Delta      r     Elong.  Phase     V
1995 04 03    12 48.52   -34 34.1    0.216    1.192   150.5    24.4    18.7
1995 04 04    12 40.43   -36 03.6    0.213    1.188   149.3    25.4    18.7
1995 04 05    12 31.88   -37 31.8    0.211    1.185   147.9    26.7    18.7
1995 04 06    12 22.84   -38 58.0    0.210    1.181   146.3    28.1    18.7
1995 04 07    12 13.33   -40 21.7    0.208    1.177   144.5    29.6    18.7
1995 04 08    12 03.36   -41 42.1    0.207    1.173   142.6    31.2    18.8
1995 04 09    11 52.96   -42 58.7    0.207    1.169   140.6    32.9    18.8
1995 04 10    11 42.16   -44 10.8    0.207    1.165   138.5    34.7    18.8
1995 04 11    11 31.00   -45 17.9    0.207    1.161   136.4    36.6    18.9
1995 04 12    11 19.54   -46 19.7    0.208    1.157   134.2    38.4    18.9
1995 04 13    11 07.84   -47 15.8    0.209    1.153   132.0    40.3    19.0
1995 04 14    10 55.96   -48 05.9    0.210    1.149   129.7    42.2    19.1
1995 04 15    10 43.99   -48 50.0    0.212    1.144   127.5    44.1    19.1
1995 04 16    10 31.99   -49 28.1    0.214    1.140   125.3    45.9    19.2
1995 04 17    10 20.04   -50 00.2    0.216    1.136   123.1    47.8    19.2
1995 04 18    10 08.22   -50 26.6    0.218    1.132   120.9    49.5    19.3
1995 04 19    09 56.59   -50 47.6    0.221    1.128   118.8    51.3    19.4
1995 04 20    09 45.23   -51 03.4    0.224    1.123   116.7    53.0    19.4
1995 04 21    09 34.17   -51 14.6    0.227    1.119   114.7    54.7    19.5
1995 04 22    09 23.46   -51 21.4    0.230    1.115   112.7    56.3    19.6
1995 04 23    09 13.15   -51 24.3    0.234    1.110   110.8    57.8    19.7
1995 04 24    09 03.24   -51 23.9    0.238    1.106   109.0    59.3    19.7
1995 04 25    08 53.76   -51 20.3    0.241    1.102   107.1    60.8    19.8
1995 04 26    08 44.71   -51 14.2    0.245    1.097   105.4    62.2    19.9
1995 04 27    08 36.09   -51 05.9    0.249    1.093   103.7    63.5    19.9
1995 04 28    08 27.89   -50 55.6    0.254    1.088   102.0    64.8    20.0
1995 04 29    08 20.10   -50 43.8    0.258    1.084   100.4    66.0    20.1
1995 04 30    08 12.72   -50 30.7    0.262    1.079    98.9    67.2    20.1
1995 05 01    08 05.71   -50 16.5    0.266    1.075    97.4    68.4    20.2
1995 05 02    07 59.06   -50 01.4    0.271    1.070    96.0    69.5    20.2
1995 05 03    07 52.76   -49 45.7    0.275    1.066    94.5    70.5    20.3
1995 05 04    07 46.77   -49 29.5    0.280    1.061    93.2    71.6    20.4
1995 05 05    07 41.09   -49 12.9    0.284    1.057    91.9    72.6    20.4
1995 05 06    07 35.68   -48 56.0    0.288    1.052    90.6    73.5    20.5
1995 05 07    07 30.54   -48 38.9    0.293    1.047    89.3    74.4    20.5
1995 05 08    07 25.63   -48 21.7    0.297    1.043    88.1    75.3    20.6
1995 05 09    07 20.95   -48 04.4    0.302    1.038    87.0    76.2    20.6
1995 05 10    07 16.48   -47 47.1    0.306    1.034    85.8    77.0    20.7
1995 05 11    07 12.20   -47 29.8    0.311    1.029    84.7    77.8    20.7
1995 05 12    07 08.10   -47 12.5    0.315    1.024    83.7    78.6    20.8
1995 05 13    07 04.16   -46 55.3    0.319    1.020    82.6    79.3    20.8

1995 05 18    06 46.49   -45 29.1    0.340    0.996    77.8    82.7    21.0
1995 05 23    06 31.39   -44 01.8    0.360    0.973    73.5    85.8    21.2
1995 05 28    06 18.06   -42 30.5    0.377    0.950    69.6    88.5    21.4
1995 06 02    06 05.95   -40 51.3    0.393    0.928    66.2    91.0    21.5

Gareth V. Williams                                            M.P.E.C. 1995-G02

Read MPEC 1995-G01 Read MPEC 1995-G03


Our Web policy. Index to the CBAT/MPC/ICQ pages.


Valid HTML 4.01!